Location: Bonaustraße
(48.4603°N, 11.9280°E)
Time: 19:58:12
(UTC+01:00)

Envisat - Pass Details

Date: 27 January 2021
Orbit: 764 x 766 km, 98.1° (Epoch: 06 March)

Event Time Altitude Azimuth Distance (km) Brightness Sun altitude
Rises 05:58:16 0° 15° (NNE) 3,245 6.3 -18.0°
Reaches altitude 10° 06:00:36 10° 17° (NNE) 2,314 5.6 -17.7°
Maximum altitude 06:05:42 74° 102° (ESE) 800 3.2 -16.8°
Drops below altitude 10° 06:10:45 10° 188° (S) 2,295 5.5 -16.0°
Sets 06:13:03 0° 191° (S) 3,216 6.2 -15.6°
